FW4141 Weather Reports


Display with metric or nautical units.
time (UTC)temp
F
wind
direction
speed
MPH
gust
MPH
rain 1hr
in
rain 24hr
in
rain mn
in
humidity
%
barometer
mb
20260502181136 70 0.0 0.0 0.00 0.00 0.00 32 1011.9
20260502180127 71 0.0 0.0 0.00 0.00 0.00 32 1012.0
20260502170118 80 0.0 0.0 0.00 0.00 0.00 24 1012.1
20260502164044 79 0.0 0.0 0.00 0.00 0.00 23 1012.2
20260502163034 80 0.0 0.0 0.00 0.00 0.00 20 1012.3
20260502162112 80 0.0 0.0 0.00 0.00 0.00 21 1012.5
20260502161031 82 0.0 0.0 0.00 0.00 0.00 13 1012.6
20260502152110 81 0.0 0.0 0.00 0.00 0.00 21 1013.1
20260502151113 82 0.0 0.0 0.00 0.00 0.00 13 1013.2
20260502150113 82 0.0 0.0 0.00 0.00 0.00 13 1013.3
20260502123131 81 0.0 0.0 0.00 0.00 0.00 21 1014.6
20260502122104 82 0.0 0.0 0.00 0.00 0.00 20 1014.8
20260502121114 82 0.0 0.0 0.00 0.00 0.00 15 1014.9
20260502115055 82 0.0 0.0 0.00 0.00 0.00 14 1015.2
20260502114050 82 0.0 0.0 0.00 0.00 0.00 13 1015.2
20260502113046 81 0.0 0.0 0.00 0.00 0.00 21 1015.3
20260502112043 81 0.0 0.0 0.00 0.00 0.00 21 1015.3
20260502111039 81 0.0 0.0 0.00 0.00 0.00 21 1015.4
20260502110037 81 0.0 0.0 0.00 0.00 0.00 21 1015.5
20260502105033 79 0.0 0.0 0.00 0.00 0.00 21 1015.6
20260502104051 79 0.0 0.0 0.00 0.00 0.00 23 1015.8
20260502103026 80 0.0 0.0 0.00 0.00 0.00 22 1015.7
20260502102022 79 0.0 1.0 0.00 0.00 0.00 22 1016.0
20260502101021 79 0.0 0.0 0.00 0.00 0.00 23 1016.2
20260502100136 78 0.0 0.0 0.00 0.00 0.00 23 1016.2
20260502091057 77 0.0 0.0 0.00 0.00 0.00 25 1016.6
20260502071135 64 0.0 0.0 0.00 0.00 0.00 45 1017.2
20260502070112 62 0.0 0.0 0.00 0.00 0.00 51 1017.2
20260502065128 61 0.0 0.0 0.00 0.00 0.00 51 1017.2
20260502064107 61 0.0 0.0 0.00 0.00 0.00 52 1017.2
20260502063113 60 0.0 0.0 0.00 0.00 0.00 54 1017.4
20260502062057 59 0.0 0.0 0.00 0.00 0.00 55 1017.4
20260502061056 60 0.0 0.0 0.00 0.00 0.00 52 1017.4
20260502060133 62 0.0 0.0 0.00 0.00 0.00 51 1017.4
20260502055109 62 0.0 0.0 0.00 0.00 0.00 54 1017.3
20260502054104 61 0.0 0.0 0.00 0.00 0.00 57 1017.3
20260502053039 59 0.0 0.0 0.00 0.00 0.00 61 1017.3
20260502052134 59 0.0 0.0 0.00 0.00 0.00 60 1017.3
20260502051031 61 0.0 0.0 0.00 0.00 0.00 62 1017.3
20260502050030 59 0.0 0.0 0.00 0.00 0.00 69 1017.3
20260502045025 56 0.0 0.0 0.00 0.00 0.00 77 1017.3
20260502044022 52 0.0 0.0 0.00 0.00 0.00 87 1017.3
20260502043017 48 0.0 0.0 0.00 0.00 0.00 87 1017.4
20260502042115 43 0.0 0.0 0.00 0.00 0.00 90 1017.3
20260502041112 41 0.0 0.0 0.00 0.00 0.00 89 1017.4
20260502040110 41 0.0 0.0 0.00 0.00 0.00 88 1017.3
20260502035105 41 0.0 0.0 0.00 0.00 0.00 88 1017.2
20260502034059 41 0.0 0.0 0.00 0.00 0.00 87 1017.4
20260502033058 41 0.0 0.0 0.00 0.00 0.00 86 1017.4
20260502032112 41 0.0 0.0 0.00 0.00 0.00 86 1017.6
20260502031109 41 0.0 0.0 0.00 0.00 0.00 86 1017.5
20260502030046 42 0.0 0.0 0.00 0.00 0.00 86 1017.5
20260502025041 42 0.0 0.0 0.00 0.00 0.00 87 1017.6
20260502024057 42 0.0 0.0 0.00 0.00 0.00 87 1017.6
20260502023034 43 0.0 0.0 0.00 0.00 0.00 87 1017.6
20260502022029 44 0.0 0.0 0.00 0.00 0.00 87 1017.7
20260502021025 44 0.0 0.0 0.00 0.00 0.00 87 1017.7
20260502020021 44 0.0 0.0 0.00 0.00 0.00 86 1017.9
20260502015018 43 0.0 0.0 0.00 0.00 0.00 85 1017.8
20260502014115 43 0.0 0.0 0.00 0.00 0.00 84 1017.9
20260502013113 44 0.0 0.0 0.00 0.00 0.00 84 1018.0
20260502012107 44 0.0 0.0 0.00 0.00 0.00 84 1018.0
20260502011103 44 0.0 0.0 0.00 0.00 0.00 83 1018.0
20260502010100 44 0.0 0.0 0.00 0.00 0.00 83 1018.0
20260502005058 44 0.0 0.0 0.00 0.00 0.00 82 1018.0
20260502004053 44 0.0 0.0 0.00 0.00 0.00 82 1018.0
20260502003050 45 0.0 0.0 0.00 0.00 0.00 81 1018.1
20260502002047 45 0.0 0.0 0.00 0.00 0.00 81 1018.2
20260502001042 46 0.0 0.0 0.00 0.00 0.00 76 1018.2
20260502000101 47 0.0 0.0 0.00 0.00 0.00 76 1018.3
20260501235036 48 0.0 0.0 0.00 0.00 0.00 78 1018.3
20260501234034 49 0.0 0.0 0.00 0.00 0.00 80 1018.3
20260501233028 50 0.0 0.0 0.00 0.00 0.00 80 1018.3
20260501232046 50 0.0 0.0 0.00 0.00 0.00 78 1018.5
20260501231021 49 0.0 0.0 0.00 0.00 0.00 76 1018.5
20260501230034 49 0.0 0.0 0.00 0.00 0.00 74 1018.6
20260501225118 49 0.0 0.0 0.00 0.00 0.00 74 1018.6
20260501224111 50 0.0 0.0 0.00 0.00 0.00 76 1018.6
20260501223112 51 0.0 0.0 0.00 0.00 0.00 77 1018.6
20260501222216 51 0.0 0.0 0.00 0.00 0.00 77 1018.6
20260501221124 51 0.0 0.0 0.00 0.00 0.00 76 1018.6
20260501220117 51 0.0 0.0 0.00 0.00 0.00 75 1018.7
20260501215052 50 0.0 0.0 0.00 0.00 0.00 75 1018.8
20260501214051 50 0.0 0.0 0.00 0.00 0.00 74 1018.7
20260501213046 51 0.0 0.0 0.00 0.00 0.00 73 1018.8
20260501212043 51 0.0 0.0 0.00 0.00 0.00 72 1018.7
20260501211134 51 0.0 0.0 0.00 0.00 0.00 71 1018.8
20260501210035 52 0.0 0.0 0.00 0.00 0.00 71 1018.9
20260501205059 53 0.0 0.0 0.00 0.00 0.00 70 1018.9
20260501204033 53 0.0 0.0 0.00 0.00 0.00 69 1019.0
20260501203057 54 0.0 0.0 0.00 0.00 0.00 67 1018.9
20260501202135 55 0.0 0.0 0.00 0.00 0.00 62 1019.0
20260501201104 55 0.0 0.0 0.00 0.00 0.00 61 1019.0
20260501200024 55 0.0 0.0 0.00 0.00 0.00 60 1019.2